Weather History for KDOV - October, 2014

Change the Weather History Date:

Tuesday, October 14, 2014

  Actual Average Record
Temperature  
Mean Temperature 70 °F -  
Max Temperature 78 °F 70 °F 86 °F (1954)
Min Temperature 62 °F 51 °F 29 °F (1988)
Cooling Degree Days 5    
Growing Degree Days 20 (Base 50)    
Moisture  
Dew Point 65 °F    
Average Humidity 94    
Maximum Humidity 100    
Minimum Humidity 62    
Precipitation  
Precipitation 0.01 in - - ()
Sea Level Pressure  
Sea Level Pressure 30.14 in    
Wind  
Wind Speed 7 mph (SE)    
Max Wind Speed 14 mph    
Max Gust Speed 23 mph    
Visibility 8 miles    
Events      
Averages and records for this station are not official NWS values.
T = Trace of Precipitation, MM = Missing Value Source: NWS Daily Summary

Daily Weather History Graph

Daily Weather History Graph

Search for Another Location

Airport or City:

Trip Planner

Search our weather history database for the weather conditions in past years. The results will help you decide how hot, cold, wet, or windy it might be!

Date:

Astronomy

Oct. 14, 2014 Rise Set
Actual Time 7:10 AM EDT 6:24 PM EDT
Civil Twilight 6:43 AM EDT 6:51 PM EDT
Nautical Twilight 6:12 AM EDT 7:22 PM EDT
Astronomical Twilight 5:41 AM EDT 7:53 PM EDT
Moon 11:29 PM EDT (10/14) 1:08 PM EDT (10/14)
Length of Visible Light 12h 07m
Length of Day
11h 14m
Waning Gibbous, 61% of the Moon is Illuminated
Oct 14
Waning Gibbous
Oct 15
Last Quarter
Oct 23
New
Oct 30
First Quarter
Nov 6
Full

Hourly Weather History & Observations

Time (EDT) Temp. Dew Point Humidity Pressure Visibility Wind Dir Wind Speed Gust Speed Precip Events Conditions
12:08 AM 64.4 °F 64.4 °F 100% 30.19 in 10.0 mi SSE 5.8 mph - N/A   Clear
12:13 AM 64.4 °F 64.4 °F 100% 30.19 in 10.0 mi SSE 5.8 mph - N/A   Clear
12:58 AM 63.1 °F 63.1 °F 100% 30.20 in 9.0 mi SSE 6.9 mph - N/A   Clear
1:43 AM 62.6 °F 62.6 °F 100% 30.19 in 4.0 mi SE 4.6 mph - N/A   Clear
1:48 AM 62.6 °F 62.6 °F 100% 30.19 in 5.0 mi SSE 4.6 mph - N/A   Clear
1:58 AM 62.4 °F 62.4 °F 100% 30.20 in 8.0 mi SSE 5.8 mph - N/A   Clear
2:58 AM 64.0 °F 64.0 °F 100% 30.19 in 10.0 mi SSE 5.8 mph - N/A   Overcast
3:43 AM 64.4 °F 64.4 °F 100% 30.18 in 10.0 mi SE 8.1 mph - N/A   Mostly Cloudy
3:58 AM 64.4 °F 64.4 °F 100% 30.18 in 10.0 mi SE 6.9 mph - N/A   Scattered Clouds
4:18 AM 64.4 °F 64.4 °F 100% 30.17 in 10.0 mi SE 5.8 mph - N/A   Clear
4:28 AM 64.4 °F 64.4 °F 100% 30.17 in 10.0 mi SSE 6.9 mph - N/A   Clear
4:43 AM 64.4 °F 64.4 °F 100% 30.17 in 10.0 mi SSE 5.8 mph - N/A   Clear
4:58 AM 63.3 °F 63.3 °F 100% 30.18 in 10.0 mi SE 5.8 mph - N/A   Clear
5:58 AM 62.6 °F 62.6 °F 100% 30.19 in 9.0 mi SE 5.8 mph - N/A   Clear
6:18 AM 62.6 °F 62.6 °F 100% 30.18 in 10.0 mi SE 4.6 mph - N/A   Clear
6:53 AM 62.6 °F 62.6 °F 100% 30.18 in 10.0 mi SE 5.8 mph - N/A   Clear
6:58 AM 62.1 °F 62.1 °F 100% 30.19 in 9.0 mi SE 4.6 mph - 0.01 in   Clear
7:58 AM 63.5 °F 63.5 °F 100% 30.19 in 7.0 mi SE 6.9 mph - N/A   Clear
8:58 AM 67.6 °F 67.6 °F 100% 30.20 in 8.0 mi SE 8.1 mph - N/A   Clear
9:58 AM 71.1 °F 71.1 °F 100% 30.19 in 7.0 mi ESE 6.9 mph - N/A   Clear
10:58 AM 74.1 °F 66.9 °F 78% 30.18 in 7.0 mi ESE 9.2 mph - N/A   Partly Cloudy
11:58 AM 75.9 °F 65.8 °F 71% 30.17 in 7.0 mi ESE 10.4 mph - N/A   Scattered Clouds
12:58 PM 77.7 °F 65.5 °F 66% 30.15 in 7.0 mi SSE 13.8 mph 23.0 mph N/A   Scattered Clouds
1:58 PM 78.3 °F 64.2 °F 62% 30.12 in 7.0 mi ESE 5.8 mph - N/A   Scattered Clouds
2:58 PM 74.8 °F 66.4 °F 75% 30.09 in 7.0 mi ESE 8.1 mph - N/A   Scattered Clouds
3:58 PM 74.1 °F 66.6 °F 77% 30.08 in 7.0 mi ESE 10.4 mph - N/A   Partly Cloudy
4:58 PM 72.5 °F 65.8 °F 80% 30.07 in 7.0 mi ESE 10.4 mph - N/A   Mostly Cloudy
5:58 PM 72.1 °F 65.5 °F 79% 30.07 in 8.0 mi ESE 6.9 mph - N/A   Mostly Cloudy
6:58 PM 68.2 °F 66.2 °F 93% 30.07 in 9.0 mi ESE 9.2 mph - N/A   Clear
7:58 PM 67.8 °F 67.8 °F 100% 30.06 in 9.0 mi ESE 9.2 mph - N/A   Clear
8:43 PM 68.0 °F 68.0 °F 100% 30.04 in 9.0 mi SE 9.2 mph - N/A   Clear
8:58 PM 68.0 °F 68.0 °F 100% 30.06 in 9.0 mi SE 9.2 mph - N/A   Clear
9:58 PM 68.2 °F 68.2 °F 100% 30.05 in 9.0 mi ESE 8.1 mph - N/A   Partly Cloudy
10:18 PM 68.0 °F 68.0 °F 100% 30.04 in 9.0 mi SE 6.9 mph - N/A   Clear
10:53 PM 68.0 °F 68.0 °F 100% 30.04 in 9.0 mi ESE 6.9 mph - N/A   Scattered Clouds
10:58 PM 68.7 °F 68.4 °F 99% 30.05 in 9.0 mi ESE 6.9 mph - N/A   Scattered Clouds
11:58 PM 67.1 °F 67.1 °F 100% 30.04 in 9.0 mi ESE 6.9 mph - N/A   Clear